ATLAS D DEB, 2327

Orbit data source: Space-Track

ATLAS D DEB, 2327 is space debris in LEO originally from a launch on Thu, 14 Jul 1966 UTC launched from the Air Force Western Test Range (AFWTR). Debris objects in space refer to the collection of defunct objects orbiting the Earth. Examples of debris include non-operational satellites, rocket bodies, and fragments generated from explosions, collisions, or faulty payload assembly.

Loading next visibility...
Identifier
2327, 1966-063B
Orbit
LEO
Country
Flag of USUS
Related business
Manufacturer
Goodyear
Mission
Spacecraft
Bus & Motor
CONTAINER, Unknown motor
Mass
2 kg wet, 2 kg dry
Launch date (UTC)
1966-07-14 (59 years ago)
Launch vehicle
Unknown
Launch site
Air Force Western Test Range (AFWTR)
Object type
Payload
Rocket body
Debris
Shape & HBR
Unknown
Radar Cross Section
Medium (>0.1 m² and <1 m²)

Expand to show TLE details & history
Last TLE update: 12 hours ago

TLE from 12 hours ago
0 ATLAS D DEB
1 02327U 66063B   25294.30448803  .00002354  00000-0  12699-2 0  9990
2 02327 144.1927 132.5341 0031020 222.1571 137.6729 14.05040740  4463
Epoch: 2025-10-21T07:18Z
TLE epoch observation values (Epoch: 2025-10-21T07:18:27.765Z)
Latitude
-0.00002°
Longitude
-7.07592°
Altitude
892.102 km
Speed
7.4 km/s
True Right ascension
08h 50m 08s
True Declination
0° 00' 00"
Sunlit
Object was in daylight at epoch
Visualization orbit readout
Latitude
Unknown
Longitude
Unknown
Altitude
Unknown
Speed
Unknown
Apparent Right ascension
Unknown
Apparent Declination
Unknown
Sunlit
N/A
Visualization observer readout
Local Sidereal Time
14:39:25
Azimuth
Unknown
Elevation
Unknown
Doppler factor
Unknown
Orbital elements
Apogee altitude
901.864 km
Perigee altitude
856.839 km
Semi-major axis
7,257.488 km
Eccentricity
0.0031
Inclination
144.1927°
RAAN
132.5341°
Arg. of periapsis
222.1571°
True anomaly
137.91157°
Mean anomaly
137.6729°
Eccentric anomaly
137.7923°
Mean motion
3.51046 °/min
Orbital period
102.55 mins
BSTAR
0.0012699
Loading maneuver chart data...
Computing Atmospheric mass density...
Loading historical data...
Loading historical data...
Loading historical data...
Loading historical data...
Loading historical data...
Loading historical data...
Loading historical data...

Documentation

Showing up to 5 results
|